Weather Roundup
Issued by NWS

Home | Current Version | Previous Version | Graphics & Text | Print | Product List | Glossary Off
Versions: 1 2 3 4 5 6 7 8 9 10 11 12 13 14 15 16 17 18 19 20 21 22 23 24 25 26 27 28 29 30 31 32 33 34 35 36 37 38 39 40 41 42 43 44 45 46 47 48 49 50

000
NZUS93 KARX 231859
HRRWXR

CURRENT HOURLY OBSERVATIONS ACROSS
MUCH OF THE UPPER MISSISSIPPI VALLEY
NATIONAL WEATHER SERVICE LA CROSSE WI
200 PM CDT SAT JUL 23 2016


...SOUTHEAST MINNESOTA...


CITY           SKY/WX    TMP DP  RH WIND       PRES   REMARKS
ROCHESTER      LGT RAIN  72  71  97 SE14G23   29.94F
ROCHESTER/MAYO CLOUDY    71  71 100 E9G17     29.93F
WINONA         RAIN      73  72  94 CALM      29.98R
AUSTIN         CLOUDY    72  70  94 E13       29.89F
ALBERT LEA     RAIN      73  72  94 E13G23    29.87F
DODGE CENTER   RAIN     N/A N/A N/A SE14      29.91F
PRESTON        RAIN      69  67  94 SE8       30.00R
OWATONNA       LGT RAIN  73  70  88 SE17G23   29.85F
FARIBAULT      CLOUDY    72  72 100 SE16G25   29.85F
$$

...ELSEWHERE IN MINNESOTA...


CITY           SKY/WX    TMP DP  RH WIND       PRES   REMARKS
MINNEAPOLIS    CLOUDY    74  71  91 SE17      29.86F
INTNL FALLS    CLOUDY    76  64  66 SE7       29.90R
DULUTH         CLOUDY    73  62  68 E10       29.92F
RED WING       LGT RAIN  73  70  88 SE16G26   29.90F
REDWOOD FALLS  CLOUDY    80  75  84 E9        29.81F
MANKATO        CLOUDY    77  72  83 SE21      29.82F
WORTHINGTON    MOSUNNY   85  76  74 S12       29.83S HX  94
FAIRMONT       PTSUNNY   79  54  41 SE14      29.82S
$$

...SOUTHWEST WISCONSIN...


CITY           SKY/WX    TMP DP  RH WIND       PRES   REMARKS
LA CROSSE      LGT RAIN  73  70  90 E6        29.93F
PRAIRIE DU CHI LGT RAIN  70  69  96 SE8       29.92F
BOSCOBEL       LGT RAIN  73  71  93 E8        29.94F
LONE ROCK      RAIN      72  70  94 E3        30.00F FOG
PLATTEVILLE    CLOUDY    70  70 100 NE10      29.98F
FORT MC COY    RAIN      70  69  96 N3        29.99F
MAUSTON-NEW LI LGT RAIN  72  71  95 S5        29.99F
VIROQUA        CLOUDY    70  70 100 E8        29.95F
WIS DELLS      NOT AVBL
$$

...ELSEWHERE IN WISCONSIN...


CITY           SKY/WX    TMP DP  RH WIND       PRES   REMARKS
MILWAUKEE      CLOUDY    86  73  65 SE10      29.99S HX  93
MADISON        TSTM      79  77  94 CALM      30.00R FOG
GREEN BAY      CLOUDY    85  72  65 SE7       29.98F HX  91
EAU CLAIRE     TSTM      73  71  93 CALM      29.96S
BLACK RVR FLS  RAIN      72  72 100 CALM      29.97F
MEDFORD        CLOUDY    77  71  83 S5        29.99S
WAUSAU         CLOUDY    81  68  64 SE8       29.97F
WIS RAPIDS     PTSUNNY   82  71  69 SW12      29.99F
MARSHFIELD     CLOUDY    80  71  74 S13       29.98F
RICE LAKE      TSTM      71  67  88 S7        29.96F
$$

...NORTHEAST IOWA...


CITY           SKY/WX    TMP DP  RH WIND       PRES   REMARKS
WATERLOO       CLOUDY    84  78  82 W8        29.85F HX  95
DUBUQUE        CLOUDY    73  70  90 NE13      29.97F
DECORAH        CLOUDY    72  72 100 SE7G16    29.90F
MASON CITY     CLOUDY    76  75  97 SE13G21   29.86F
CHARLES CITY   HVY RAIN  75  75 100 CALM      29.95S
OELWEIN        CLOUDY    77  72  83 E21G32    29.87F
$$

...ELSEWHERE IN IOWA...


CITY           SKY/WX    TMP DP  RH WIND       PRES   REMARKS
DES MOINES     CLOUDY    88  77  69 S3        29.88R HX 100
IOWA CITY      CLOUDY    89  81  77 SE10      29.92F HX 108
FORT DODGE     CLOUDY    81  79  94 SE9       29.87S
MARSHALLTOWN   CLOUDY    87  79  76 VRB5      29.88S HX 101
CEDAR RAPIDS   CLOUDY    88  83  85 SE12      29.90F HX 109
$$

...NORTHERN ILLINOIS...


CITY           SKY/WX    TMP DP  RH WIND       PRES   REMARKS
CHICAGO-OHARE  CLOUDY    89  73  59 VRB3      29.97F HX  97
CHICAGO-MIDWAY CLOUDY    91  73  55 SW7       29.96F HX  99
MOLINE         CLOUDY    89  79  72 SE12      29.93F HX 104
ROCKFORD       CLOUDY    87  78  74 S8        29.98F HX 100
PEORIA         CLOUDY    89  75  63 S7        29.97F HX  99
$$

NOTE: "FAIR" INDICATES FEW OR NO CLOUDS BELOW 12,000 FEET WITH NO
SIGNIFICANT WEATHER AND/OR OBSTRUCTIONS TO VISIBILITY. WIND
SPEEDS ARE IN MILES-PER-HOUR.




USA.gov is the U.S. government's official web portal to all federal, state and local government web resources and services.